sat.trackr.live / text

‹ back to catalog

STARLINK-30390

NORAD 57819 · 2023-138M

PAYLOAD ACTIVE UNKNOWN

§ Identity

Operator
Country
US
Launch date
2023-09-09
Launch site
AFETR
Launch vehicle
Mass (kg)
RCS (m²)

Purposes: comms

External: N2YO · Heavens-Above · Gunter

§ Orbital elements

Epoch: 2026-05-25T01:25:38.271072Z

Period
94.27 min
Inclination
43.0015°
Eccentricity
0.0001491
Mean motion
15.27582783 rev/d
Perigee alt
482.0 km
Apogee alt
484.1 km
Semi-major
6,861.2 km
B*
5.6626e-5
RAAN
163.2641°
Arg perigee
265.0494°
Mean anomaly
95.0188°
Rev number
15,035

§ Raw data

STARLINK-303901 57819U 23138M   26145.05947073  .00001296  00000+0  56626-4 0  99962 57819  43.0015 163.2641 0001491 265.0494  95.0188 15.27582783150356

JSON: /api/v1/satellites/57819 · /tle

For live sub-satellite position, see the globe view (requires WebGL).

§ Visibility from observer

Set your observer location to see the next 7 days of passes ≥ 10°. The values pass through the URL so the page stays shareable.

No JS? Fill the form by hand. The geolocation button needs JavaScript.